Tracking 31029 objects as of 15-Jul-2025
HD Live streaming from Space Station
objects crossing your sky now

STARLINK-30367

Track STARLINK-30367 now!
10-day predictions
STARLINK-30367 is classified as:


NORAD ID: 57791
Int'l Code: 2023-134W
Perigee: 565.5 km
Apogee: 566.9 km
Inclination: 43.0 °
Period: 95.8 minutes
Semi major axis: 6937 km
RCS: Unknown
Launch date: September 4, 2023
Source: United States (US)
Launch site: AIR FORCE EASTERN TEST RANGE (AFETR)
Your satellite tracking list
Your tracking list is empty




NASA's NSSDC Master Catalog

Two Line Element Set (TLE):
1 57791U 23134W   25195.89357507  .00000247  00000-0  33345-4 0  9993
2 57791  43.0038  49.3571 0001008 255.4155 104.6576 15.02533715103706
Source of the keplerian elements: AFSPC